{"data":{"norad_id":48381,"intl_designator":"2021-038AE","name":"STARLINK-2630","alt_names":[],"object_type":"PAYLOAD","status":"ACTIVE","operator":null,"country":"US","launch_date":"2021-05-04","launch_site_code":"AFETR","launch_vehicle":null,"mission":null,"orbit_class":"UNKNOWN","rcs_meters":null,"size_class":null,"mass_kg":null,"dimensions":null,"purposes":["comms"],"wikipedia_slug":null,"has_3d_model":false,"image_url":null,"decayed_at":null,"tle_current":{"epoch":"2026-05-24T23:01:11.373024Z","epoch_age_seconds":85488,"freshness":"FRESH","line1":"1 48381U 21038AE  26144.95915941  .00000992  00000+0  45643-4 0  9993","line2":"2 48381  53.1627 353.5247 0001305  82.9289 277.1861 15.30190527278907","mean_motion":15.30190527,"eccentricity":0.0001305,"inclination_deg":53.1627,"raan_deg":353.5247,"arg_perigee_deg":82.9289,"mean_anomaly_deg":277.1861,"bstar":4.5643e-5,"rev_number":27890,"period_min":94.105928287452,"perigee_km":474.34898809949,"apogee_km":476.13772037195,"semimajor_km":6853.3803542357,"source":"CELESTRAK","updated_at":"2026-05-25T13:38:16.689766Z"}}}